Weather History for KRCA - December, 2011

Change the Weather History Date:

Saturday, December 24, 2011

  Actual Average Record
Temperature  
Mean Temperature 34 °F -  
Max Temperature 45 °F 34 °F 59 °F (1999)
Min Temperature 24 °F 14 °F -13 °F (1996)
Degree Days  
Heating Degree Days 30    
Moisture  
Dew Point 18 °F    
Average Humidity 52    
Maximum Humidity 65    
Minimum Humidity 36    
Precipitation  
Precipitation 0.00 in - - ()
Sea Level Pressure  
Sea Level Pressure 30.35 in    
Wind  
Wind Speed 9 mph (WNW)    
Max Wind Speed 20 mph    
Max Gust Speed 26 mph    
Visibility 10 miles    
Events      
Averages and records for this station are not official NWS values.
T = Trace of Precipitation, MM = Missing Value Source: NWS Daily Summary

Daily Weather History Graph

Daily Weather History Graph

Search for Another Location

Airport or City:

Trip Planner

Search our weather history database for the weather conditions in past years. The results will help you decide how hot, cold, wet, or windy it might be!

Date:

Astronomy

Dec. 24, 2011 Rise Set
Actual Time 7:25 AM MST 4:18 PM MST
Civil Twilight 6:52 AM MST 4:51 PM MST
Nautical Twilight 6:15 AM MST 5:28 PM MST
Astronomical Twilight 5:40 AM MST 6:03 PM MST
Moon 7:15 AM MST (12/24) 4:34 PM MST (12/24)
Length of Visible Light 9h 58m
Length of Day
8h 52m
New Moon, 0% of the Moon is Illuminated
Dec 24
New Moon
Dec 31
First Quarter
Jan 9
Full
Jan 16
Last Quarter
Jan 23
New

Hourly Weather History & Observations

Time (MST) Temp. Windchill Dew Point Humidity Pressure Visibility Wind Dir Wind Speed Gust Speed Precip Events Conditions
12:55 AM 33.4 °F 24.8 °F 16.0 °F 49% 30.29 in 10.0 mi NW 11.5 mph - N/A   Clear
1:55 AM 29.1 °F 22.1 °F 13.8 °F 53% 30.31 in 10.0 mi WSW 6.9 mph - N/A   Clear
2:55 AM 27.5 °F 21.1 °F 12.9 °F 54% 30.32 in 10.0 mi West 5.8 mph - N/A   Clear
3:55 AM 26.4 °F 16.6 °F 14.0 °F 59% 30.32 in 10.0 mi West 10.4 mph - N/A   Clear
4:55 AM 26.4 °F 16.6 °F 13.8 °F 59% 30.33 in 10.0 mi West 10.4 mph - N/A   Clear
5:55 AM 24.3 °F 15.4 °F 13.1 °F 63% 30.38 in 10.0 mi West 8.1 mph - N/A   Clear
6:55 AM 24.1 °F 16.0 °F 12.2 °F 61% 30.38 in 10.0 mi West 6.9 mph - N/A   Clear
7:55 AM 25.3 °F 16.7 °F 12.9 °F 59% 30.36 in 10.0 mi West 8.1 mph - N/A   Clear
8:55 AM 34.7 °F 28.8 °F 16.7 °F 48% 30.34 in 10.0 mi West 6.9 mph - N/A   Clear
9:55 AM 41.0 °F 37.1 °F 18.0 °F 40% 30.32 in 10.0 mi SW 5.8 mph - N/A   Partly Cloudy
10:55 AM 43.7 °F 40.3 °F 19.8 °F 38% 30.30 in 10.0 mi SW 5.8 mph - N/A   Scattered Clouds
11:55 AM 41.5 °F - 24.8 °F 51% 30.29 in 10.0 mi Calm Calm - N/A   Mostly Cloudy
12:55 PM 44.6 °F 42.2 °F 22.6 °F 42% 30.27 in 10.0 mi NE 4.6 mph - N/A   Scattered Clouds
1:55 PM 45.1 °F 37.3 °F 19.6 °F 36% 30.29 in 10.0 mi NNW 19.6 mph 26.5 mph N/A   Clear
2:55 PM 41.9 °F 35.9 °F 21.2 °F 44% 30.32 in 10.0 mi NW 10.4 mph - N/A   Clear
3:55 PM 39.9 °F 32.9 °F 19.2 °F 43% 30.34 in 10.0 mi NW 11.5 mph - N/A   Clear
4:55 PM 32.7 °F 23.9 °F 18.9 °F 57% 30.37 in 10.0 mi WNW 11.5 mph - N/A   Clear
5:55 PM 34.3 °F 28.4 °F 16.9 °F 49% 30.39 in 10.0 mi West 6.9 mph - N/A   Clear
6:55 PM 35.6 °F 28.0 °F 18.5 °F 50% 30.40 in 10.0 mi WNW 10.4 mph - N/A   Clear
7:55 PM 34.5 °F 28.6 °F 18.1 °F 51% 30.40 in 10.0 mi West 6.9 mph - N/A   Clear
8:55 PM 34.9 °F 29.0 °F 19.9 °F 55% 30.40 in 10.0 mi NW 6.9 mph - N/A   Clear
9:55 PM 33.3 °F 25.1 °F 21.2 °F 61% 30.40 in 10.0 mi West 10.4 mph - N/A   Clear
10:55 PM 34.0 °F 26.6 °F 20.8 °F 59% 30.40 in 10.0 mi WNW 9.2 mph - N/A   Clear
11:55 PM 33.8 °F 24.8 °F 23.0 °F 65% 30.42 in 10.0 mi NW 12.7 mph - N/A   Clear